Preview of NWS' New Version of Forecast
This preview is not operational and should not be used for support decisions.

Regional Weather Roundup (RWR)

Issued by National Weather Service (NWS)

                            
000
ASUS44 KMEG 211010
RWRTN 
TENNESSEE HOURLY STATE WEATHER ROUNDUP
NATIONAL WEATHER SERVICE MEMPHIS TN
500 AM CDT SUN JUL 21 2019

TNZ002-004-019-021-049-052-054-088>092-211100-
WEST TENNESSEE
  
CITY           SKY/WX    TMP DP  RH WIND       PRES   REMARKS
MEMPHIS INTL   FAIR      76  75  97 S6        29.97S                  
NWS MEMPHIS      N/A     76 N/A N/A MISG        N/A                   
JACKSON        MOCLDY    75  74  96 S6        29.98S                  
DYERSBURG      FAIR      75  74  96 SE3       29.96R                  
SOMERVILLE     PTCLDY    75  73  94 S6        29.96F                  
COVINGTON      PTCLDY    75  73  94 CALM      29.96R                  
UNION CITY     CLEAR     75  73  94 CALM      29.94S                  
BOLIVAR        CLOUDY    75  73  94 SE7       29.97S                  
PARIS          CLOUDY    75  73  94 S6        29.97S                  
HUNTINGDON     MOCLDY    75  73  94 CALM      29.97S                  
LEXINGTON      CLOUDY    75  73  94 S6        29.98S                  
SELMER         CLOUDY    75  73  94 CALM      29.99S                  
SAVANNAH       CLOUDY    75  73  94 S6G12     29.99F                  
$$

TNZ008-025-027-028-033-062-065-066-211100-
NORTH MIDDLE TENNESSEE
  
CITY           SKY/WX    TMP DP  RH WIND       PRES   REMARKS
NASHVILLE      CLOUDY    73  70  90 S3        30.00F                  
PORTLAND       PTCLDY    72  70  94 S8        29.99F                  
CLARKSVILLE    FAIR      73  71  93 S6        29.97S                  
LEBANON        CLOUDY    73  72  94 S6        30.00R                  
SMYRNA         CLOUDY    72  71  97 SE5       30.02S                  
MURFREESBORO   CLOUDY    73  72  94 S6        30.00S                  
COOKEVILLE     CLOUDY    72  70  94 CALM      30.03S                  
LIVINGSTON     PTSUNNY   72  70  94 VRB5      30.03F                  
GALLATIN       MOSUNNY   72  72 100 CALM      30.03S                  
CROSSVILLE     MOCLDY    70  68  93 CALM      30.09R                  
ROCKWOOD       CLOUDY    72  72 100 CALM      30.07S FOG              
$$

TNZ061-075-076-078-094-096-097-211100-
SOUTH MIDDLE TENNESSEE
  
CITY           SKY/WX    TMP DP  RH WIND       PRES   REMARKS
LAWRENCEBURG   CLOUDY    73  72  94 CALM      30.02F                  
LEWISBURG      PTSUNNY   75  73  94 S3        30.01F                  
FAYETTEVILLE   CLOUDY    73  73 100 CALM      30.04S                  
TULLAHOMA      CLOUDY    73  72  94 S5G12     30.03S                  
WINCHESTER     CLOUDY    73  72  94 W6        30.05R                  
MCMINNVILLE    CLOUDY    72  72 100 CALM      30.04S                  
COLUMBIA       CLOUDY    73  73 100 S5        29.99F FOG              
SHELBYVILLE    CLOUDY    73  73 100 S3        30.02F                  
$$

TNZ017-018-042-046-047-211100-
NORTHEAST TENNESSEE
  
CITY           SKY/WX    TMP DP  RH WIND       PRES   REMARKS
TRI CITIES     FOG       70  69  97 CALM      30.06S VSB 3/4          
ELIZABETHTON   FAIR      68  68 100 CALM      30.06R                  
GREENEVILLE    SUNNY     72  70  94 CALM      30.05S                  
$$

TNZ012-013-036-069-073-074-211100-
CENTRAL EAST TENNESSEE
  
CITY           SKY/WX    TMP DP  RH WIND       PRES   REMARKS
KNOXVILLE      CLOUDY    73  71  93 SW6       30.03R                  
OAK RIDGE      CLOUDY    76  72  87 SW3       30.05R                  
DOWNTOWN KNOXV CLOUDY    73  73 100 CALM      30.03R                  
GATLINBURG     CLEAR     72  72 100 CALM      30.03R                  
MORRISTOWN     PTCLDY    72  72 100 CALM      30.04R                  
JACKSBORO      CLOUDY    73  73 100 CALM      30.07S                  
$$

TNZ083-085-099-211100-
SOUTHEAST TENNESSEE
  
CITY           SKY/WX    TMP DP  RH WIND       PRES   REMARKS
CHATTANOOGA    FAIR      74  73  97 SE3       30.03R                  
DAYTON         CLOUDY    73  73 100 CALM      30.02S FOG              
$$

SKY/WX REPORTED AS FAIR MEANS FEW OR NO CLOUDS BELOW
12 THOUSAND FEET.